Vertical_Velocity
-4 -4 -2 0 -6 -4 -3 -3 -3 -1 -1 -1 1 -1 -2 -1 -0 -2 0 1 2 -3 5 10 -5 -0 1 5 -8 2 2 -2 6 2 -4 9 3 0 0 -0 5 5 -4 2 2 -4 -1
-1 -2 5 3 3 -2 1 -1 1 -3 -5 1 4 2 2 -2 -1 -0 -1 -1 5 -1 -1 6 -1 0 0 7 -1 -4 -2 2 -5 8 -0 8 4 9 0 1 3 -1 1 -3 -2 -0 -1
-0 -0 -1 -7 3 1 -2 3 -2 -0 -6 2 -6 1 4 -1 -2 2 -2 0 4 2 8 -1 2 3 5 -16 13 -0 -2 6 8 4 -7 -6 2 4 -1 -1 -4 -1 0 -1 -3 -7 -2
4 -4 -2 3 10 0 3 6 7 9 -3 -3 -3 -6 -5 1 -3 -3 -4 -5 -0 6 8 -5 8 0 -2 -2 6 -6 -1 1 -3 3 9 13 -4 -0 -1 -4 -1 2 7 3 -8 2 -12
1 5 -4 -8 -2 1 6 5 -2 -11 -1 3 -4 -4 -4 -3 1 -2 1 -1 -3 7 5 0 10 2 -4 -1 4 -7 1 2 -3 2 9 1 -2 -2 4 0 3 3 -0 2 0 -1 -0
0 -4 -1 -4 3 3 -0 -1 2 -3 3 -2 -1 -0 0 2 -1 2 1 -4 6 1 20 6 10 14 5 -6 -2 -3 -3 11 -9 2 7 3 -0 0 2 3 -3 -1 3 -0 1 5 1
-3 -4 -1 -5 -2 -3 -3 0 3 1 1 -2 4 4 -2 2 -0 1 5 -12 1 10 5 -11 -19 2 5 14 -4 3 -2 2 9 3 0 1 3 -2 -5 -3 -2 3 2 2 -4 -2 3
2 1 4 2 3 -1 0 1 -2 -2 -3 -3 -1 -0 -1 0 -2 1 4 -2 -2 -1 8 -6 12 17 -4 -4 0 5 1 -5 1 -2 1 0 -2 -6 0 1 2 1 1 -5 -6 -2 7
2 4 3 1 -2 -1 -2 -2 -2 1 -1 2 1 2 -3 1 -3 3 8 3 -17 3 5 -2 3 1 -4 3 -0 0 2 1 -3 4 0 -2 1 1 4 -0 1 -1 1 -1 5 -3 -4
-3 9 1 -3 -7 1 1 -2 -2 -4 3 3 -3 -4 -5 5 -2 1 -4 10 -9 4 3 9 -2 13 -4 9 2 -9 1 -3 5 -6 -1 -2 -2 -0 1 -0 0 2 0 1 0 1 -1
-7 2 -1 -3 2 -1 2 1 0 -2 -6 -3 2 -4 -5 -3 -3 -7 9 3 3 -15 3 18 7 14 -8 6 -7 10 -3 1 -2 -3 -3 -3 1 1 1 -4 0 -2 -1 2 1 1 -2
-11 0 -0 -1 1 -3 -0 -1 1 0 -1 -2 1 5 10 12 15 -19 5 14 -14 5 7 4 1 1 5 5 3 4 3 -5 6 2 5 -2 1 1 -4 -1 0 2 0 0 0 0 2
-11 -0 3 -1 5 3 -1 3 -1 -5 2 3 1 10 2 10 -10 -1 5 2 6 8 11 10 1 1 -1 3 5 0 0 3 -2 -2 0 0 -2 1 2 -0 1 3 -1 -0 1 3 -9
-8 -2 3 1 -3 -0 -1 -2 -2 -2 -0 1 11 -4 6 2 3 2 -1 -1 2 4 -0 1 -2 4 -3 -4 4 2 3 2 1 2 -0 -2 5 -0 -1 -4 -6 -4 -4 -2 -0 0 -2
-8 -0 7 0 -3 -1 1 -0 -4 -3 2 3 4 0 1 2 2 3 -0 0 2 1 -4 -3 10 -2 5 4 -9 1 -1 -2 -4 -2 -2 -0 -1 5 -1 -0 3 5 2 -3 2 -1 3
-6 -3 1 1 -1 1 -1 -2 -4 -4 1 3 -8 2 2 3 10 5 2 0 -1 -0 -4 2 -4 -2 -1 -0 1 4 1 -8 -3 -3 1 3 1 -0 4 -0 -1 -3 -5 -4 -0 -1 -1
-6 -0 0 2 -2 -1 -0 2 -3 -4 15 9 -11 -6 2 8 -1 1 2 -1 0 6 3 4 -2 0 -2 -5 -2 -1 -4 -0 2 1 1 -0 0 6 -5 -0 -5 4 2 1 -0 1 -0
-3 0 -0 1 -1 -2 1 1 -4 -2 5 5 -4 -3 1 -2 -6 0 0 1 2 1 -2 -1 -1 -2 -5 -1 0 1 -2 2 -1 -4 -1 -5 -2 -0 -11 -6 -3 -4 -4 -2 1 -4 -1
-1 -4 0 3 -1 -0 2 1 1 7 -1 -1 -0 1 -4 -5 0 0 -2 -0 1 -2 1 -1 -0 -0 0 -3 2 1 -0 5 -1 -0 -5 -1 -1 -1 -2 4 4 1 -2 -0 -0 4 -6
-0 -2 -1 0 0 2 -6 2 -2 0 -1 -9 -3 -2 -3 -2 1 -2 -0 2 -1 -3 1 -0 1 -2 -1 2 -1 1 1 1 0 0 -1 -0 0 -3 -4 -5 -1 -1 -0 -0 4 4 -7
-3 -0 -4 1 -2 -3 2 -2 -2 -5 0 -0 6 0 -1 1 3 -0 2 -2 -0 0 -1 -0 1 -1 -4 0 0 0 2 4 3 0 1 0 -1 2 -2 -1 2 1 1 -2 5 -8 12
-4 1 -4 4 -8 -3 4 -7 8 -9 -3 -4 -2 -2 -11 -1 2 2 0 2 -1 2 2 0 -1 1 0 -0 3 -1 -2 -0 -5 6 0 0 -2 -0 -4 -1 2 1 -1 0 -0 -3 1
-5 1 -6 1 -1 -7 3 -2 -6 1 -12 -3 1 -1 5 -0 1 3 -2 1 1 -0 0 2 -0 -2 -1 6 2 2 2 1 0 -5 -0 -2 -1 0 -4 1 -0 3 -3 -1 -2 0 3
-2 0 -0 -4 5 -12 5 2 -1 -4 -8 1 9 6 2 -2 2 -3 -1 -1 -0 1 -2 1 0 -1 1 -2 -2 0 0 1 2 1 -3 -1 -0 0 -1 -1 -1 -1 -0 -1 2 -2 -1
-5 2 -3 1 -3 1 -7 4 1 0 -1 -7 -1 -1 4 -1 -0 -0 1 -1 1 -0 -1 -2 0 0 -3 -0 1 2 3 2 -1 -1 2 -2 -1 -0 2 0 -9 -3 -3 -0 -1 -8 1
-2 4 -1 2 1 -0 -7 -0 5 -2 -2 1 -3 1 2 6 -1 13 0 -2 -1 -0 2 2 -2 -3 -2 1 1 0 -0 -1 4 3 0 3 0 -1 0 2 0 -2 0 -1 -0 -4 -0
-0 -1 -0 -2 1 5 -1 -7 0 1 -1 -5 3 -5 1 4 -2 -1 1 -3 -1 1 -1 1 0 0 -0 -0 0 0 -1 2 1 -0 0 1 2 -1 -1 -0 -7 -3 -0 -1 4 -11 0
5 -0 -3 -0 -4 -4 5 -2 -0 -1 0 -3 -2 3 -6 1 -20 -1 3 8 8 1 -0 5 -1 -0 1 1 1 1 1 -1 1 -1 -4 -5 -3 -1 2 2 -7 -0 -0 0 -4 -4 2
8 -0 -3 -1 -1 1 -5 -5 2 3 -2 -0 -4 -1 -1 -2 -8 4 -0 3 1 8 3 3 1 -1 1 -2 0 -1 -1 -1 1 -1 -3 -1 -3 -5 -8 -11 -4 2 -2 3 -0 1 1
Height
1515 1512 1508 1505 1500 1495 1492 1488 1484 1480 1477 1473 1469 1466 1462 1459 1456 1454 1452 1450 1452 1453 1453 1456 1458 1460 1463 1464 1462 1461 1462 1464 1466 1469 1472 1475 1477 1478 1477 1476 1477 1477 1477 1476 1474 1473 1474
1514 1511 1507 1504 1498 1493 1489 1485 1481 1477 1473 1469 1466 1463 1459 1456 1453 1450 1447 1446 1446 1448 1450 1452 1455 1458 1460 1461 1459 1460 1461 1462 1465 1467 1469 1472 1475 1475 1475 1473 1474 1474 1476 1475 1474 1472 1474
1513 1509 1504 1500 1496 1491 1486 1480 1476 1472 1469 1466 1462 1459 1455 1452 1449 1446 1443 1442 1442 1444 1447 1449 1452 1455 1458 1457 1457 1458 1460 1462 1464 1466 1468 1470 1473 1474 1474 1475 1475 1476 1480 1476 1472 1471 1470
1510 1506 1501 1497 1492 1487 1481 1476 1471 1467 1465 1462 1458 1454 1450 1447 1445 1442 1439 1437 1438 1439 1443 1446 1450 1452 1453 1451 1454 1456 1458 1460 1462 1463 1466 1469 1472 1474 1475 1477 1477 1479 1479 1481 1459 1460 1464
1507 1503 1499 1495 1489 1484 1478 1471 1467 1463 1460 1456 1452 1449 1446 1442 1440 1437 1435 1433 1433 1434 1439 1442 1448 1449 1450 1447 1450 1453 1456 1460 1462 1465 1466 1468 1471 1474 1475 1476 1479 1476 1481 1473 1463 1457 1459
1506 1500 1494 1491 1485 1478 1473 1467 1463 1458 1455 1451 1448 1444 1442 1439 1436 1434 1432 1430 1429 1431 1435 1439 1445 1452 1445 1442 1443 1449 1454 1458 1461 1465 1468 1469 1471 1471 1472 1476 1481 1471 1476 1469 1465 1458 1460
1503 1498 1492 1488 1482 1476 1470 1464 1459 1455 1451 1448 1445 1441 1439 1436 1432 1431 1430 1428 1431 1431 1428 1427 1433 1435 1432 1438 1443 1448 1453 1457 1461 1465 1465 1469 1471 1471 1466 1468 1466 1465 1470 1473 1461 1456 1460
1501 1496 1490 1484 1478 1472 1466 1461 1456 1451 1448 1444 1441 1438 1436 1433 1430 1428 1428 1427 1426 1428 1423 1426 1430 1434 1436 1437 1443 1448 1453 1457 1460 1464 1465 1473 1473 1465 1463 1461 1464 1467 1472 1474 1467 1461 1461
1499 1493 1487 1481 1476 1470 1464 1458 1453 1448 1445 1441 1438 1435 1433 1430 1427 1426 1425 1424 1422 1424 1422 1426 1430 1433 1437 1439 1440 1446 1451 1455 1460 1464 1467 1467 1463 1462 1466 1465 1468 1471 1473 1473 1473 1465 1461
1498 1492 1485 1479 1473 1467 1461 1456 1451 1447 1442 1438 1435 1431 1429 1427 1427 1424 1422 1422 1419 1424 1420 1425 1428 1432 1437 1437 1441 1448 1452 1456 1460 1462 1463 1466 1462 1463 1466 1467 1465 1473 1466 1468 1468 1475 1479
1496 1490 1483 1477 1472 1466 1460 1454 1448 1444 1439 1434 1430 1427 1424 1422 1422 1422 1422 1420 1415 1424 1403 1425 1428 1431 1435 1438 1441 1450 1452 1456 1456 1456 1462 1464 1462 1465 1469 1464 1464 1471 1471 1474 1474 1478 1484
1493 1489 1482 1475 1469 1464 1457 1451 1446 1441 1436 1430 1426 1421 1416 1410 1412 1416 1420 1419 1418 1423 1403 1419 1425 1430 1436 1437 1441 1447 1452 1457 1456 1455 1458 1459 1464 1464 1463 1462 1466 1472 1472 1477 1480 1484 1500
1491 1488 1480 1473 1467 1461 1455 1449 1444 1438 1432 1426 1420 1411 1405 1403 1405 1411 1418 1421 1424 1406 1412 1423 1422 1428 1433 1436 1443 1448 1452 1457 1458 1468 1465 1462 1462 1464 1464 1466 1469 1473 1481 1492 1493 1487 1485
1489 1486 1478 1472 1466 1459 1453 1446 1440 1435 1428 1422 1414 1408 1403 1397 1402 1408 1416 1423 1415 1405 1403 1413 1419 1429 1432 1435 1443 1448 1453 1457 1456 1455 1460 1469 1463 1458 1460 1465 1469 1475 1479 1486 1476 1475 1459
1487 1484 1477 1469 1463 1457 1450 1444 1438 1431 1423 1417 1414 1411 1409 1407 1408 1412 1416 1419 1410 1405 1405 1410 1422 1429 1434 1436 1439 1448 1452 1453 1452 1452 1460 1460 1459 1454 1458 1463 1467 1474 1484 1472 1476 1468 1478
1486 1482 1475 1468 1462 1455 1450 1442 1436 1427 1417 1412 1414 1414 1413 1415 1415 1417 1418 1413 1414 1403 1408 1413 1418 1420 1430 1436 1436 1442 1447 1443 1447 1448 1449 1452 1460 1456 1461 1464 1465 1467 1466 1481 1480 1497 1465
1486 1482 1476 1469 1462 1455 1449 1441 1434 1424 1416 1413 1415 1417 1420 1421 1422 1421 1418 1419 1414 1411 1411 1408 1411 1415 1420 1430 1432 1439 1440 1435 1441 1443 1449 1453 1458 1466 1466 1465 1461 1467 1469 1470 1472 1471 1471
1485 1481 1477 1469 1462 1455 1448 1440 1434 1426 1419 1417 1419 1421 1424 1424 1426 1426 1425 1423 1416 1416 1413 1410 1407 1409 1420 1427 1431 1436 1432 1435 1438 1442 1449 1452 1457 1471 1463 1453 1454 1456 1460 1464 1470 1468 1459
1484 1481 1476 1470 1463 1456 1449 1441 1435 1428 1424 1423 1424 1427 1428 1428 1426 1425 1425 1420 1418 1417 1415 1414 1413 1411 1418 1424 1430 1428 1430 1439 1440 1442 1446 1450 1461 1471 1461 1452 1451 1454 1452 1453 1453 1456 1454
1484 1480 1476 1471 1464 1458 1452 1445 1438 1432 1428 1428 1428 1430 1429 1429 1426 1426 1425 1424 1425 1421 1418 1417 1418 1417 1420 1425 1424 1430 1435 1441 1442 1444 1445 1448 1450 1461 1461 1453 1453 1462 1453 1449 1450 1453 1437
1484 1479 1475 1470 1467 1460 1453 1447 1441 1434 1429 1429 1428 1430 1429 1427 1425 1427 1425 1428 1425 1422 1422 1421 1423 1422 1424 1428 1430 1432 1436 1442 1445 1446 1447 1450 1460 1456 1449 1445 1445 1446 1444 1442 1447 1439 1436
1484 1479 1475 1471 1465 1461 1454 1449 1443 1437 1433 1431 1432 1431 1429 1425 1426 1424 1424 1427 1426 1425 1424 1425 1423 1424 1426 1427 1430 1431 1434 1437 1441 1446 1449 1450 1456 1455 1451 1440 1440 1440 1435 1433 1428 1426 1422
1483 1480 1475 1472 1466 1463 1457 1451 1447 1441 1437 1437 1437 1436 1436 1426 1425 1426 1423 1425 1426 1426 1429 1427 1426 1427 1428 1432 1433 1434 1434 1435 1437 1441 1446 1452 1456 1457 1446 1431 1432 1433 1422 1423 1420 1418 1416
1481 1478 1475 1472 1468 1463 1459 1453 1450 1446 1443 1442 1442 1440 1436 1428 1423 1422 1422 1425 1426 1427 1428 1430 1429 1429 1435 1434 1434 1433 1434 1435 1436 1439 1441 1450 1456 1457 1446 1439 1434 1414 1413 1415 1415 1409 1404
1480 1477 1473 1472 1468 1464 1460 1455 1451 1448 1446 1444 1443 1442 1440 1434 1426 1423 1425 1425 1427 1429 1430 1431 1432 1434 1434 1434 1433 1431 1433 1435 1433 1435 1440 1443 1452 1449 1445 1443 1422 1411 1412 1411 1414 1407 1400
1478 1476 1472 1470 1467 1463 1461 1457 1452 1449 1446 1444 1443 1443 1441 1438 1425 1424 1423 1424 1426 1427 1431 1431 1433 1433 1434 1433 1433 1432 1429 1428 1432 1436 1436 1441 1444 1448 1443 1439 1431 1407 1406 1406 1409 1408 1395
1475 1473 1470 1468 1465 1462 1459 1458 1454 1449 1446 1444 1442 1441 1440 1437 1428 1425 1421 1422 1424 1424 1426 1429 1432 1433 1434 1433 1434 1431 1431 1426 1427 1426 1435 1438 1441 1443 1442 1438 1424 1404 1401 1404 1411 1404 1393
1473 1470 1468 1465 1462 1459 1457 1455 1453 1450 1446 1444 1442 1441 1441 1437 1427 1426 1424 1423 1422 1424 1424 1429 1432 1433 1434 1433 1432 1430 1430 1424 1425 1418 1422 1427 1432 1434 1437 1438 1433 1401 1401 1404 1400 1394 1394
1470 1466 1464 1462 1459 1456 1454 1453 1451 1449 1445 1442 1442 1440 1438 1438 1429 1424 1422 1421 1422 1423 1424 1426 1427 1428 1430 1432 1436 1435 1436 1432 1427 1424 1413 1419 1413 1414 1420 1414 1400 1398 1396 1396 1395 1395 1394